This is the latest recevied weather packets stored in our database for station/object OE3BCB-14. If no packets are shown the sender has not sent any weather packets the latest 1 day(s).
| Time | Temp. | Humidity | Pressure | Rain* | Wind** | Luminosity | Snow |
|---|---|---|---|---|---|---|---|
| 1836274759 | 12.78° C | 67% | 1025.9 hPa | - | 0 m/s | 0 W/m² | - |
| 1836274456 | 12.78° C | 67% | 1025.9 hPa | - | 0 m/s | 0 W/m² | - |
| 1836274311 | 12.78° C | 67% | 1025.8 hPa | - | 0 m/s | 0 W/m² | - |
| 1836274154 | 12.22° C | 67% | 1026 hPa | - | 0 m/s | 0 W/m² | - |
| 1778032931 | 18.89° C | 50% | 1010.4 hPa | - | 0.45 m/s, 180° | 0 W/m² | - |
| 1778032629 | 18.89° C | 50% | 1010.4 hPa | - | 0.45 m/s, 225° | 0 W/m² | - |
| 1778032326 | 18.89° C | 50% | 1010.3 hPa | - | 0.45 m/s, 225° | 0 W/m² | - |
| 1778032024 | 18.89° C | 49% | 1010.3 hPa | - | 0.45 m/s, 225° | 0 W/m² | - |
| 1778031721 | 18.89° C | 49% | 1010.3 hPa | - | 0.89 m/s, 225° | 0 W/m² | - |
| 1778031419 | 18.89° C | 49% | 1010.2 hPa | - | 0.45 m/s, 225° | 0 W/m² | - |
| 1778031117 | 18.89° C | 49% | 1010.2 hPa | - | 0 m/s | 0 W/m² | - |
| 1778030814 | 18.89° C | 49% | 1010.2 hPa | - | 0.89 m/s, 180° | 0 W/m² | - |
| 1778030512 | 18.89° C | 49% | 1010 hPa | - | 1.34 m/s, 180° | 0 W/m² | - |
| 1778029907 | 18.89° C | 48% | 1010.1 hPa | - | 0.89 m/s, 225° | 0 W/m² | - |
| 1778029605 | 18.89° C | 48% | 1009.9 hPa | - | 0.89 m/s, 225° | 0 W/m² | - |
| 1778029302 | 19.44° C | 48% | 1009.9 hPa | - | 1.34 m/s, 180° | 0 W/m² | - |
| 1778029000 | 19.44° C | 47% | 1009.9 hPa | - | 0.89 m/s, 225° | 0 W/m² | - |
| 1778028697 | 19.44° C | 47% | 1009.8 hPa | - | 0 m/s | 0 W/m² | - |
| 1778028395 | 19.44° C | 47% | 1009.7 hPa | - | 11.18 m/s, 225° | 0 W/m² | - |
| 1778028093 | 19.44° C | 47% | 1009.7 hPa | - | 2.24 m/s, 180° | 0 W/m² | - |
| 1778027790 | 19.44° C | 46% | 1009.7 hPa | - | 0.45 m/s, 225° | 0 W/m² | - |
| 1778027488 | 19.44° C | 46% | 1009.7 hPa | - | 7.15 m/s, 180° | 0 W/m² | - |
| 1778027185 | 19.44° C | 45% | 1009.7 hPa | - | 1.34 m/s, 225° | 0 W/m² | - |
| 1778026883 | 19.44° C | 45% | 1009.6 hPa | - | 0.89 m/s, 180° | 0 W/m² | - |
| 1778026581 | 20° C | 45% | 1009.6 hPa | - | 0.45 m/s, 225° | 0 W/m² | - |
* Rain since midnight (hover to see other rain measurements)
** Current wind speed in m/s (hover to see current wind gust speed)